TimeCDT,TemperatureF,Dew PointF,Humidity,Sea Level PressureIn,VisibilityMPH,Wind Direction,Wind SpeedMPH,Gust SpeedMPH,PrecipitationIn,Events,Conditions,WindDirDegrees,DateUTC
12:58 AM,44.6,22.8,42,30.17,10.0,NNE,4.6,-,N/A,,Clear,30,2013-03-25 05:58:00
1:58 AM,43.2,23.5,46,30.17,10.0,NE,5.8,-,N/A,,Clear,40,2013-03-25 06:58:00
2:58 AM,42.6,23.9,48,30.19,10.0,North,3.5,-,N/A,,Clear,10,2013-03-25 07:58:00
3:58 AM,42.1,24.1,49,30.19,10.0,North,4.6,-,N/A,,Clear,10,2013-03-25 08:58:00
4:58 AM,41.5,23.2,48,30.20,10.0,NNE,6.9,-,N/A,,Clear,30,2013-03-25 09:58:00
5:58 AM,39.9,22.6,50,30.24,10.0,NE,5.8,-,N/A,,Clear,40,2013-03-25 10:58:00
6:58 AM,39.7,21.6,48,30.27,10.0,NE,10.4,-,N/A,,Clear,40,2013-03-25 11:58:00
7:58 AM,38.5,21.4,50,30.31,10.0,NNE,8.1,-,N/A,,Clear,30,2013-03-25 12:58:00
8:58 AM,41.9,20.8,43,30.35,10.0,NE,15.0,-,N/A,,Clear,40,2013-03-25 13:58:00
9:58 AM,45.7,19.8,36,30.36,10.0,NNE,17.3,-,N/A,,Clear,20,2013-03-25 14:58:00
10:58 AM,48.9,17.4,29,30.37,10.0,NNE,15.0,20.7,N/A,,Clear,30,2013-03-25 15:58:00
11:51 AM,53.6,8.6,16,30.36,10.0,ENE,12.7,-,N/A,,Clear,60,2013-03-25 16:51:00
11:58 AM,53.2,8.6,17,30.37,10.0,NE,12.7,-,N/A,,Clear,40,2013-03-25 16:58:00
12:58 PM,54.7,8.8,16,30.35,10.0,NE,10.4,19.6,N/A,,Clear,40,2013-03-25 17:58:00
1:58 PM,57.0,8.4,14,30.32,10.0,NE,10.4,-,N/A,,Partly Cloudy,50,2013-03-25 18:58:00
2:58 PM,58.8,9.1,14,30.29,10.0,NE,8.1,-,N/A,,Clear,40,2013-03-25 19:58:00
3:58 PM,59.9,8.8,13,30.27,10.0,Variable,3.5,-,N/A,,Clear,0,2013-03-25 20:58:00
4:58 PM,59.4,9.3,14,30.25,10.0,East,8.1,-,N/A,,Clear,80,2013-03-25 21:58:00
5:58 PM,59.9,11.1,15,30.25,10.0,NNE,4.6,-,N/A,,Clear,20,2013-03-25 22:58:00
6:58 PM,58.1,13.1,17,30.26,10.0,NE,6.9,-,N/A,,Clear,40,2013-03-25 23:58:00
7:58 PM,52.5,15.6,23,30.29,10.0,ENE,4.6,-,N/A,,Clear,60,2013-03-26 00:58:00
8:58 PM,49.6,16.2,26,30.31,10.0,NE,6.9,-,N/A,,Clear,50,2013-03-26 01:58:00
9:58 PM,46.9,17.2,31,30.34,10.0,NE,4.6,-,N/A,,Clear,40,2013-03-26 02:58:00
10:58 PM,46.4,18.3,33,30.37,10.0,NNE,4.6,-,N/A,,Clear,30,2013-03-26 03:58:00
11:58 PM,45.9,19.8,35,30.39,10.0,NNE,5.8,-,N/A,,Clear,20,2013-03-26 04:58:00